Content
SEND FEEDBACK

Daily
Averages
Monthly
Summary
United States of America

POTTS JUNCTION, GUAM


Home > North America > United States > Guam
Elevation: 360 feet     Latitude: 13 33N     Longitude: 144 50E

WEATHER
 
SELECT A DAY
Number of Records: 209,308;   Date Range: 1/1/95 - 9/18/14
 
SHARE

PRINT THIS DATA

[ ← Previous Day ]
WEATHER ALMANAC - MARCH 22, 2013
[ Next Day → ]
[ °C ]   °F
Weather ElementAverageHighLow
Temperature83.9 °F89.1 °F (10:54 am)79 °F (1:54 am)
Dewpoint72.5 °F75 °F (7:54 pm)71.1 °F (1:54 am)
Humidity69.2 %85 % (10:54 pm)57 % (10:54 am)
Barometer29.88 in29.92 in (9:01 am)29.81 in (3:54 pm)
Wind Speed14.3 mph20.7 mph (12:54 pm)
Wind Gust26.5 mph (10:34 am)
Weather ElementAverage
Visibility9.9 mi
Wind DirectionENE (53.3 °)

Weather ElementTotal
Precipitation---
Cooling Degree Days19.1 (Base 65)
Growing Degree Days34.1 (Base 50)
Averaged from 30 records on March 22, 2013
WEATHER CONDITIONS BREAKOUT
WIND DIRECTION BREAKOUT
WEATHER BY HOUR - MARCH 22, 2013
[ °C ]   °F
Local TimeTemperatureDewpointHumidityBarometerVisibilityWind DirectionWind SpeedGust SpeedPrecipitationEventsConditions
1:54 AM79.0 °F71.1 °F77 %29.86 in10.0 miNE (50°)8.1 mphPartly Cloudy
2:54 AM80.1 °F71.1 °F74 %29.86 in10.0 miNE (50°)8.1 mphPartly Cloudy
3:54 AM79.0 °F72.0 °F79 %29.85 in10.0 miNE (40°)11.5 mphClear
4:54 AM79.0 °F71.1 °F77 %29.85 in10.0 miNNE (30°)10.4 mph20.7 mphPartly Cloudy
5:54 AM79.0 °F71.1 °F77 %29.85 in10.0 miNE (40°)11.5 mphClear
6:54 AM79.0 °F71.1 °F77 %29.86 in10.0 miNE (40°)9.2 mphClear
7:54 AM82.9 °F73.0 °F72 %29.88 in10.0 miNNE (30°)10.4 mphClear
8:54 AM86.0 °F73.0 °F65 %29.89 in10.0 miNE (40°)17.3 mphScattered Clouds
9:01 AM84.2 °F71.6 °F66 %29.92 in10.0 miNE (50°)17.3 mphMostly Cloudy
9:07 AM86.0 °F71.6 °F62 %29.92 in10.0 miNE (40°)16.1 mph23.0 mphScattered Clouds
9:17 AM84.2 °F73.4 °F70 %29.92 in10.0 miNNE (30°)17.3 mph21.9 mphMostly Cloudy
9:27 AM86.0 °F71.6 °F62 %29.92 in10.0 miNE (50°)15.0 mph24.2 mphMostly Cloudy
9:54 AM86.0 °F72.0 °F63 %29.90 in10.0 miNE (50°)18.4 mphMostly Cloudy
10:34 AM87.8 °F71.6 °F58 %29.92 in10.0 miNE (50°)19.6 mph26.5 mphMostly Cloudy
10:42 AM87.8 °F71.6 °F58 %29.92 in10.0 miENE (60°)18.4 mph26.5 mphMostly Cloudy
10:54 AM89.1 °F72.0 °F57 %29.89 in10.0 miENE (60°)16.1 mphMostly Cloudy
11:54 AM88.0 °F71.1 °F57 %29.87 in10.0 miENE (70°)15.0 mphMostly Cloudy
12:45 PM86.0 °F73.4 °F66 %29.88 in10.0 miENE (70°)17.3 mph23.0 mph0.00 inRainLight Rain
12:54 PM88.0 °F73.0 °F61 %29.85 in10.0 miENE (70°)20.7 mph24.2 mph0.00 inMostly Cloudy
1:54 PM89.1 °F72.0 °F57 %29.83 in10.0 miEast (80°)20.7 mph26.5 mphPartly Cloudy
2:54 PM88.0 °F73.0 °F61 %29.82 in10.0 miEast (80°)18.4 mph24.2 mphMostly Cloudy
3:54 PM87.1 °F73.0 °F63 %29.81 in10.0 miNE (50°)18.4 mphMostly Cloudy
4:54 PM86.0 °F73.0 °F65 %29.82 in10.0 miENE (60°)19.6 mphMostly Cloudy
5:54 PM84.0 °F73.0 °F69 %29.84 in10.0 miENE (60°)15.0 mph0.00 inMostly Cloudy
6:54 PM82.9 °F73.0 °F72 %29.86 in10.0 miENE (70°)10.4 mphScattered Clouds
7:54 PM81.0 °F75.0 °F82 %29.88 in8.0 miENE (60°)11.5 mph0.00 inRainLight Rain
8:54 PM81.0 °F75.0 °F82 %29.90 in10.0 miENE (60°)10.4 mph0.00 inMostly Cloudy
9:54 PM80.1 °F73.9 °F81 %29.91 in10.0 miNE (50°)9.2 mphScattered Clouds
10:54 PM80.1 °F75.0 °F85 %29.91 in10.0 miENE (60°)10.4 mph0.00 inScattered Clouds
11:54 PM80.1 °F73.9 °F81 %29.91 in10.0 miNE (50°)6.9 mphScattered Clouds
Hourly data recorded from PGUM, located miles away from Potts Junction, Guam







STORIES FROM OUR PARTNERS